Regional Weather Roundup
Issued by NWS

Home | Current Version | Previous Version | Text Only | Print | Product List | Glossary Off
Versions: 1 2 3 4 5 6 7 8 9 10 11 12 13 14 15 16 17 18 19 20 21 22 23 24 25 26 27 28 29 30 31 32 33 34 35 36 37 38 39 40 41 42 43 44 45 46 47 48 49 50

000
ASUS43 KDTX 171301
RWRMI
MICHIGAN HOURLY REGIONAL WEATHER ROUNDUP
NATIONAL WEATHER SERVICE DETROIT/PONTIAC MI
900 AM EDT TUE OCT 17 2017

NOTE: "FAIR" INDICATES FEW OR NO CLOUDS BELOW 12,000 FEET WITH NO
SIGNIFICANT WEATHER AND/OR OBSTRUCTION TO VISIBILITY.

MIZ047>049-052>055-059>063-066>070-074>076-081>083-171400-
SOUTHEAST LOWER MICHIGAN

CITY           SKY/WX    TMP DP  RH WIND       PRES   REMARKS
ADRIAN         SUNNY     43  38  82 W7        30.26S
ALMA           SUNNY     47  40  77 SW8       30.14S
ANN ARBOR      SUNNY     40  39  97 S6        30.23R
BAD AXE        SUNNY     46  39  75 SW10      30.13F
CARO           SUNNY     47  38  73 S8        30.14F
DETROIT CITY   SUNNY     48  39  71 SW10      30.23S
DETROIT        MOSUNNY   46  39  76 SW13      30.25R
FLINT          SUNNY     48  38  68 SW13      30.18S
GROSSE ILE     SUNNY     48  39  70 SW8       30.24R
HILLSDALE      SUNNY     45  37  76 SW6       30.23S
HOWELL         SUNNY     46  39  76 SW9       30.20S

CITY           SKY/WX    TMP DP  RH WIND       PRES   REMARKS
JACKSON        SUNNY     49  38  65 SW10      30.21S
LAMBERTVILLE   SUNNY     49  39  66 SW7       30.26S
LANSING        SUNNY     49  37  63 SW12      30.18S
LAPEER         FAIR      48  38  69 SW8       30.18S
MASON          SUNNY     48  39  69 S3        30.19S
MONROE         SUNNY     48  39  69 SW9       30.25R
PONTIAC        MOSUNNY   46  40  79 SW7       30.20S
PORT HOPE        N/A     50  39  66 SW10G18   30.09S
PORT HURON     SUNNY     48  39  71 SW5       30.21R
TRI CITIES     SUNNY     48  41  76 S13       30.13F
MIDLAND        FAIR      47  42  81 S7        30.11S
TROY           SUNNY     45  39  81 SW8       30.24S
SAGINAW HB     SUNNY     46  37  71 S15       30.12F
$$
MIZ043>046-050>051-056>058-064>065-071>073-077>080-171400-
SOUTHWEST LOWER MICHIGAN

CITY           SKY/WX    TMP DP  RH WIND       PRES   REMARKS
BATTLE CREEK   SUNNY     47  39  74 SW13      30.21S
BENTON HARBOR  CLEAR     48  38  68 S9        30.20F
BIG RAPIDS     CLEAR     53  44  72 SW12G20   30.09R
COLDWATER      SUNNY     47  38  71 SW12G17   30.23S
FREMONT        FAIR      48  46  93 S5        30.10S
HOLLAND        CLEAR     53  46  77 SW13      30.16S
GRAND RAPIDS   PTCLDY    50  41  71 S12       30.15F
IONIA          FAIR      49  38  67 SW12      30.15S
KALAMAZOO      SUNNY     47  38  71 S10       30.22R
LUDINGTON      CLEAR     57  46  66 SW12G21   30.06R
MARSHALL       SUNNY     47  38  71 SW9G18    30.21S
MOUNT PLEASANT SUNNY     53  44  70 SW10G18   30.09S
MUSKEGON       PTCLDY    60  47  61 SW17G30   30.12S
SOUTH HAVEN    CLEAR     51  39  63 SW8       30.19S
$$
MIZ016>042-171400-
NORTHERN LOWER MICHIGAN

CITY           SKY/WX    TMP DP  RH WIND       PRES   REMARKS
ALPENA         SUNNY     52  42  69 SW9       30.00R
BEAVER ISLAND  CLEAR     56  45  65 W14G21    29.96R
BELLAIRE       CLEAR     52  44  73 SW5       30.02R
CADILLAC       CLEAR     53  43  70 SW10G20   30.05S
CHARLEVOIX     CLEAR     55  46  73 SW10      30.01R
FRANKFORT      CLEAR     59  46  63 SW7       30.03R
GAYLORD        CLEAR     49  40  71 SW14      30.01R
GRAYLING       CLEAR     49  40  72 SW10G16   30.03S
HARBOR SPRINGS CLEAR     53  45  74 SW6       29.97S
HOUGHTON LAKE  CLEAR     50  43  77 SW15G22   30.06R
MANISTEE       CLEAR     47  45  93 E3        30.05R
OSCODA         SUNNY     46  39  78 SW13G23   30.05S
PELLSTON       CLEAR     55  46  71 SW12G21   29.97R
ROGERS CITY    SUNNY     51  41  69 SW12G20   29.98R
TRAVERSE CITY  PTCLDY    53  44  71 SW8       30.01R
$$
MIZ007>008-015-171400-
EASTERN UPPER MICHIGAN

CITY           SKY/WX    TMP DP  RH WIND       PRES   REMARKS
KINROSS        CLEAR     52  46  80 W7        29.93R
MACKINAC ISLAN CLEAR     56  47  69 SW14G24   29.94R
NEWBERRY       CLEAR     49  39  69 SW8       29.92R
S. S. MARIE    CLEAR     53  45  74 SW10      29.91R
MUNISING         N/A     46  39  76 S6        29.92R
$$
MIZ004>006-011>014-085-171400-
CENTRAL UPPER MICHIGAN

CITY           SKY/WX    TMP DP  RH WIND       PRES   REMARKS
MANISTIQUE     CLOUDY    50  33  51 W10       29.94R
ESCANABA       CLOUDY    45  38  76 W6        29.96R
MENOMINEE      CLOUDY    47  39  74 W6        30.00R
SAWYER-GWINN   CLEAR     43  37  81 W6        29.94R
$$
MIZ001>003-009>011-084-171400-
WESTERN UPPER MICHIGAN

CITY           SKY/WX    TMP DP  RH WIND       PRES   REMARKS
IRON MOUNTAIN  CLOUDY    47  36  65 NW3       29.97R
HOUGHTON       CLEAR     50  41  71 W12       29.90R
COPPER HARBOR    N/A     54  42  64 VRB5      29.88R
IRONWOOD       CLEAR     45  37  73 SW5       29.98R
$$

ABBREVIATIONS USED IN REMARKS
   TC - TEMPERATURE IN CELSIUS
  WCI - WIND CHILL INDEX
   HX - HEAT INDEX
  VSB - VISIBILITY





USA.gov is the U.S. government's official web portal to all federal, state and local government web resources and services.